| time (UTC) | temp C | wind direction | speed KPH | gust KPH | rain 1hr cm | rain 24hr cm | rain mn cm | humidity % | barometer mb |
| 20260505153040 | 26 | 339 | 0.0 | 4.8 | 0.00 | 0.00 | 0.00 | 36 | 1011.4 |
| 20260505151533 | 25 | 0 | 0.0 | 6.4 | 0.00 | 0.00 | 0.00 | 39 | 1011.4 |
| 20260505124529 | 17 | 318 | 0.0 | 4.8 | 0.00 | 0.00 | 0.00 | 60 | 1011.8 |
| 20260505123051 | 16 | 215 | 0.0 | 1.6 | 0.00 | 0.00 | 0.00 | 65 | 1011.8 |
| 20260505121528 | 15 | 0 | 0.0 | 3.2 | 0.00 | 0.00 | 0.00 | 80 | 1011.9 |
| 20260505120031 | 13 | 0 | 0.0 | 0.0 | 0.00 | 0.00 | 0.00 | 76 | 1011.8 |
| 20260505114529 | 12 | 0 | 0.0 | 0.0 | 0.00 | 0.00 | 0.00 | 78 | 1011.8 |
| 20260505113036 | 12 | 0 | 0.0 | 0.0 | 0.00 | 0.00 | 0.00 | 80 | 1011.8 |
| 20260505111548 | 11 | 0 | 0.0 | 0.0 | 0.00 | 0.00 | 0.00 | 81 | 1011.8 |
| 20260505100034 | 11 | 0 | 0.0 | 0.0 | 0.00 | 0.00 | 0.00 | 77 | 1011.2 |
| 20260505094531 | 11 | 0 | 0.0 | 0.0 | 0.00 | 0.00 | 0.00 | 77 | 1011.3 |
| 20260505093031 | 11 | 0 | 0.0 | 0.0 | 0.00 | 0.00 | 0.00 | 75 | 1011.1 |
| 20260505091533 | 12 | 0 | 0.0 | 0.0 | 0.00 | 0.00 | 0.00 | 74 | 1011.0 |
| 20260505090033 | 12 | 0 | 0.0 | 0.0 | 0.00 | 0.00 | 0.00 | 73 | 1010.9 |
| 20260505084532 | 13 | 0 | 0.0 | 0.0 | 0.00 | 0.00 | 0.00 | 72 | 1010.8 |
| 20260505083035 | 13 | 0 | 0.0 | 0.0 | 0.00 | 0.00 | 0.00 | 73 | 1010.9 |
| 20260505081533 | 12 | 0 | 0.0 | 1.6 | 0.00 | 0.00 | 0.00 | 74 | 1011.0 |
| 20260505080035 | 12 | 0 | 0.0 | 0.0 | 0.00 | 0.00 | 0.00 | 75 | 1011.1 |
| 20260505074529 | 12 | 0 | 0.0 | 0.0 | 0.00 | 0.00 | 0.00 | 75 | 1010.9 |
| 20260505073030 | 11 | 0 | 0.0 | 0.0 | 0.00 | 0.00 | 0.00 | 75 | 1010.8 |
| 20260505071536 | 12 | 0 | 0.0 | 0.0 | 0.00 | 0.00 | 0.00 | 74 | 1010.8 |
| 20260505070033 | 12 | 0 | 0.0 | 0.0 | 0.00 | 0.00 | 0.00 | 73 | 1010.7 |
| 20260505064542 | 12 | 0 | 0.0 | 0.0 | 0.00 | 0.00 | 0.00 | 71 | 1010.7 |
| 20260505063030 | 12 | 0 | 0.0 | 0.0 | 0.00 | 0.00 | 0.00 | 70 | 1010.7 |
| 20260505061536 | 12 | 0 | 0.0 | 0.0 | 0.00 | 0.00 | 0.00 | 70 | 1010.5 |
| 20260505060031 | 13 | 0 | 0.0 | 0.0 | 0.00 | 0.00 | 0.00 | 69 | 1010.7 |
| 20260505054528 | 13 | 0 | 0.0 | 0.0 | 0.00 | 0.00 | 0.00 | 68 | 1010.8 |
| 20260505053029 | 13 | 0 | 0.0 | 0.0 | 0.00 | 0.00 | 0.00 | 67 | 1011.0 |
| 20260505051528 | 13 | 0 | 0.0 | 0.0 | 0.00 | 0.00 | 0.00 | 65 | 1010.9 |
| 20260505041532 | 14 | 0 | 0.0 | 1.6 | 0.00 | 0.00 | 0.00 | 62 | 1011.1 |
| 20260505040031 | 15 | 0 | 0.0 | 1.6 | 0.00 | 0.00 | 0.00 | 61 | 1011.0 |
| 20260505034533 | 15 | 0 | 0.0 | 1.6 | 0.00 | 0.00 | 0.00 | 60 | 1011.1 |
| 20260505033031 | 15 | 0 | 0.0 | 1.6 | 0.00 | 0.00 | 0.00 | 58 | 1011.1 |
| 20260505031530 | 15 | 0 | 0.0 | 1.6 | 0.00 | 0.00 | 0.00 | 57 | 1011.2 |
| 20260505030028 | 15 | 0 | 0.0 | 3.2 | 0.00 | 0.00 | 0.00 | 55 | 1011.2 |
| 20260505024539 | 15 | 0 | 0.0 | 1.6 | 0.00 | 0.00 | 0.00 | 53 | 1011.3 |
| 20260505023027 | 15 | 0 | 0.0 | 1.6 | 0.00 | 0.00 | 0.00 | 51 | 1011.4 |
| 20260505021537 | 16 | 0 | 0.0 | 0.0 | 0.00 | 0.00 | 0.00 | 48 | 1011.4 |
| 20260505020028 | 16 | 0 | 0.0 | 1.6 | 0.00 | 0.00 | 0.00 | 56 | 1011.5 |
| 20260505014533 | 16 | 0 | 0.0 | 1.6 | 0.00 | 0.00 | 0.00 | 43 | 1011.4 |
| 20260505013031 | 16 | 0 | 0.0 | 3.2 | 0.00 | 0.00 | 0.00 | 42 | 1011.1 |
| 20260505011531 | 16 | 0 | 0.0 | 0.0 | 0.00 | 0.00 | 0.00 | 42 | 1011.1 |
| 20260505010031 | 16 | 0 | 0.0 | 1.6 | 0.00 | 0.00 | 0.00 | 40 | 1011.0 |
| 20260505004531 | 17 | 0 | 0.0 | 0.0 | 0.00 | 0.00 | 0.00 | 38 | 1010.7 |
| 20260505003027 | 18 | 0 | 0.0 | 0.0 | 0.00 | 0.00 | 0.00 | 36 | 1010.7 |
| 20260505001534 | 18 | 329 | 0.0 | 1.6 | 0.00 | 0.00 | 0.00 | 34 | 1010.5 |
| 20260505000038 | 19 | 0 | 0.0 | 6.4 | 0.00 | 0.00 | 0.00 | 32 | 1010.4 |
| 20260504234528 | 20 | 0 | 0.0 | 6.4 | 0.00 | 0.00 | 0.00 | 31 | 1010.2 |
| 20260504233029 | 20 | 200 | 0.0 | 8.0 | 0.00 | 0.00 | 0.00 | 29 | 1010.1 |
| 20260504231540 | 20 | 0 | 0.0 | 6.4 | 0.00 | 0.00 | 0.00 | 29 | 1010.0 |
| 20260504230027 | 21 | 0 | 0.0 | 3.2 | 0.00 | 0.00 | 0.00 | 28 | 1010.0 |
| 20260504224534 | 21 | 60 | 1.6 | 8.0 | 0.00 | 0.00 | 0.00 | 27 | 1009.8 |
| 20260504223028 | 21 | 235 | 1.6 | 17.7 | 0.00 | 0.00 | 0.00 | 26 | 1010.0 |
| 20260504221531 | 22 | 160 | 0.0 | 4.8 | 0.00 | 0.00 | 0.00 | 37 | 1009.9 |
| 20260504220034 | 22 | 0 | 1.6 | 8.0 | 0.00 | 0.00 | 0.00 | 34 | 1009.9 |
| 20260504214530 | 23 | 0 | 0.0 | 8.0 | 0.00 | 0.00 | 0.00 | 24 | 1010.2 |
| 20260504213028 | 23 | 0 | 0.0 | 8.0 | 0.00 | 0.00 | 0.00 | 23 | 1010.1 |
| 20260504211530 | 23 | 152 | 1.6 | 12.9 | 0.00 | 0.00 | 0.00 | 22 | 1010.1 |
| 20260504210043 | 23 | 302 | 0.0 | 12.9 | 0.00 | 0.00 | 0.00 | 32 | 1010.4 |
| 20260504204528 | 23 | 295 | 0.0 | 9.7 | 0.00 | 0.00 | 0.00 | 22 | 1010.1 |
| 20260504203032 | 23 | 122 | 1.6 | 8.0 | 0.00 | 0.00 | 0.00 | 22 | 1010.2 |
| 20260504201529 | 23 | 325 | 1.6 | 11.3 | 0.00 | 0.00 | 0.00 | 21 | 1010.1 |
| 20260504200029 | 23 | 286 | 3.2 | 9.7 | 0.00 | 0.00 | 0.00 | 31 | 1010.0 |
| 20260504194542 | 24 | 0 | 0.0 | 14.5 | 0.00 | 0.00 | 0.00 | 32 | 1010.4 |
| 20260504193030 | 23 | 294 | 1.6 | 8.0 | 0.00 | 0.00 | 0.00 | 31 | 1010.7 |
| 20260504191540 | 24 | 0 | 1.6 | 11.3 | 0.00 | 0.00 | 0.00 | 33 | 1010.8 |
| 20260504190032 | 23 | 305 | 0.0 | 9.7 | 0.00 | 0.00 | 0.00 | 32 | 1010.9 |
| 20260504184536 | 23 | 0 | 0.0 | 12.9 | 0.00 | 0.00 | 0.00 | 33 | 1011.1 |
| 20260504183030 | 23 | 198 | 1.6 | 14.5 | 0.00 | 0.00 | 0.00 | 33 | 1011.4 |
| 20260504181528 | 23 | 300 | 0.0 | 12.9 | 0.00 | 0.00 | 0.00 | 36 | 1011.6 |
| 20260504180042 | 23 | 0 | 1.6 | 9.7 | 0.00 | 0.00 | 0.00 | 26 | 1011.7 |
| 20260504174530 | 22 | 183 | 3.2 | 14.5 | 0.00 | 0.00 | 0.00 | 24 | 1011.8 |
| 20260504173029 | 22 | 177 | 1.6 | 14.5 | 0.00 | 0.00 | 0.00 | 35 | 1012.0 |
| 20260504171529 | 22 | 257 | 0.0 | 11.3 | 0.00 | 0.00 | 0.00 | 26 | 1012.0 |